C/2020 M3 ( ATLAS )

Japanese version
Home page
Updated on August 1, 2021

---------------------------------------------------------------------

* Profile

Discovery Date June 27, 2020
Magnitude 18.8 mag
Discoverer Asteroid Terrestrial-Impact Last Alert System (ATLAS) search program

* Pictures

* Orbital Elements

Epoch 2020 Nov. 7.0 TT = JDT 2459160.5
T 2020 Oct. 25.62319 TT                                 Rudenko
q   1.2682458            (2000.0)            P               Q
n   0.00709611     Peri.  328.44555     +0.72843765     -0.57193492
a  26.8198178      Node    71.25029     +0.68169348     +0.55013883
e   0.9527124      Incl.   23.47345     +0.06835631     +0.60847163
P 139
From 2146 observations 2020 June 27-2021 Apr. 2, mean residual 0".5.

* Finding Charts

* Magnitudes Graph

        m1 = 14.5 + 5 log d + 10.0 log r          [   ,-62]  (             - 2020 Aug. 24)
        m1 =  8.3 + 5 log d + 15.0 log r(t - 10)  [-62,   ]  (2020 Aug. 24 -             )

---------------------------------------------------------------------

The orbital elements are published on M.P.E.C. 2021-J28.
The charts are made with StellaNavigator Ver.10 (AstroArts).
The magnitudes graphs are made with Comet for Windows.

---------------------------------------------------------------------

Copyright(C) Seiichi Yoshida (comet@aerith.net). All rights reserved.